This is the latest recevied weather packets stored in our database for station/object DH2PG-6. If no packets are shown the sender has not sent any weather packets the latest 10 day(s).
| Time | Temp. | Humidity | Pressure | Rain* | Wind** | Luminosity | Snow |
|---|---|---|---|---|---|---|---|
| 1788376095 | 16.11° C | 65% | 1018.5 hPa | 0 mm | - | - | - |
| 1788375794 | 16.11° C | 64% | 1018.5 hPa | 0 mm | - | - | - |
| 1788375194 | 16.11° C | 64% | 1018.3 hPa | 0 mm | - | - | - |
| 1788374593 | 16.11° C | 64% | 1018.4 hPa | 0 mm | - | - | - |
| 1788374293 | 16.11° C | 63% | 1018.2 hPa | 0 mm | - | - | - |
| 1788373993 | 16.67° C | 63% | 1018.2 hPa | 0 mm | - | - | - |
| 1788373392 | 16.67° C | 61% | 1018.1 hPa | 0 mm | - | - | - |
| 1788372792 | 17.22° C | 60% | 1018.1 hPa | 0 mm | - | - | - |
| 1788372491 | 17.78° C | 59% | 1018.1 hPa | 0 mm | - | - | - |
| 1788372191 | 17.78° C | 59% | 1018.1 hPa | 0 mm | - | - | - |
| 1788371891 | 18.33° C | 58% | 1018 hPa | 0 mm | - | - | - |
| 1788371590 | 18.33° C | 58% | 1018 hPa | 0 mm | - | - | - |
| 1788371290 | 18.89° C | 57% | 1018 hPa | 0 mm | - | - | - |
| 1788370990 | 18.89° C | 57% | 1018.1 hPa | 0 mm | - | - | - |
| 1788370690 | 18.89° C | 58% | 1018 hPa | 0 mm | - | - | - |
| 1788370389 | 18.33° C | 58% | 1017.9 hPa | 0 mm | - | - | - |
| 1788370089 | 18.33° C | 58% | 1018 hPa | 0 mm | - | - | - |
| 1788369488 | 18.33° C | 57% | 1017.9 hPa | 0 mm | - | - | - |
| 1788369188 | 18.33° C | 57% | 1017.8 hPa | 0 mm | - | - | - |
| 1788368888 | 18.33° C | 57% | 1017.8 hPa | 0 mm | - | - | - |
| 1788368588 | 18.89° C | 56% | 1017.8 hPa | 0 mm | - | - | - |
| 1788368287 | 18.89° C | 55% | 1018.1 hPa | 0 mm | - | - | - |
| 1788367707 | 19.44° C | 54% | 1018 hPa | 0 mm | - | - | - |
| 1788367086 | 19.44° C | 54% | 1017.9 hPa | 0 mm | - | - | - |
| 1788366486 | 20° C | 53% | 1018 hPa | 0 mm | - | - | - |
* Rain latest hour (hover to see other rain measurements)
** Current wind speed in m/s (hover to see current wind gust speed)